| time (UTC) | temp C | wind direction | speed KPH | gust KPH | rain 1hr cm | rain 24hr cm | rain mn cm | humidity % | barometer mb |
| 20260505080242 | 21 | 210 | 1.6 | 3.2 | 0.00 | 0.00 | 0.00 | 85 | 995.1 |
| 20260505075742 | 21 | 209 | 1.6 | 1.6 | 0.00 | 0.00 | 0.00 | 85 | 995.1 |
| 20260505075144 | 21 | 186 | 1.6 | 1.6 | 0.00 | 0.00 | 0.00 | 84 | 995.1 |
| 20260505074641 | 21 | 185 | 0.0 | 3.2 | 0.00 | 0.00 | 0.00 | 84 | 995.0 |
| 20260505074041 | 21 | 62 | 0.0 | 3.2 | 0.00 | 0.00 | 0.00 | 84 | 995.0 |
| 20260505073553 | 21 | 174 | 0.0 | 1.6 | 0.00 | 0.00 | 0.00 | 84 | 995.1 |
| 20260505072945 | 21 | 205 | 0.0 | 1.6 | 0.00 | 0.00 | 0.00 | 84 | 995.3 |
| 20260505072441 | 21 | 193 | 0.0 | 1.6 | 0.00 | 0.00 | 0.00 | 83 | 995.4 |
| 20260505071841 | 21 | 324 | 0.0 | 3.2 | 0.00 | 0.00 | 0.00 | 83 | 995.6 |
| 20260505071743 | 21 | 179 | 1.6 | 3.2 | 0.00 | 0.00 | 0.00 | 83 | 995.4 |
| 20260505002122 | 25 | 230 | 0.0 | 1.6 | 0.00 | 0.00 | 0.00 | 61 | 996.0 |
| 20260505001523 | 25 | 38 | 0.0 | 3.2 | 0.00 | 0.00 | 0.00 | 60 | 995.9 |
| 20260505000933 | 25 | 195 | 4.8 | 4.8 | 0.00 | 0.00 | 0.00 | 59 | 996.0 |
| 20260505000423 | 25 | 53 | 0.0 | 3.2 | 0.00 | 0.00 | 0.00 | 60 | 995.6 |
| 20260504235922 | 25 | 191 | 0.0 | 1.6 | 0.00 | 0.00 | 0.00 | 59 | 995.7 |
| 20260504235324 | 25 | 211 | 1.6 | 3.2 | 0.00 | 0.00 | 0.00 | 59 | 995.7 |
| 20260504234832 | 25 | 217 | 0.0 | 4.8 | 0.00 | 0.00 | 0.00 | 58 | 995.8 |
| 20260504234322 | 25 | 83 | 3.2 | 4.8 | 0.00 | 0.00 | 0.00 | 58 | 995.8 |
| 20260504233722 | 25 | 22 | 3.2 | 3.2 | 0.00 | 0.00 | 0.00 | 58 | 996.0 |
| 20260504233225 | 25 | 19 | 0.0 | 3.2 | 0.00 | 0.00 | 0.00 | 58 | 995.6 |
| 20260504232623 | 25 | 225 | 3.2 | 3.2 | 0.00 | 0.00 | 0.00 | 59 | 995.8 |
| 20260504232122 | 25 | 236 | 1.6 | 4.8 | 0.00 | 0.00 | 0.00 | 57 | 995.9 |
| 20260504231523 | 25 | 239 | 3.2 | 4.8 | 0.00 | 0.00 | 0.00 | 57 | 996.3 |
| 20260504230924 | 25 | 241 | 3.2 | 3.2 | 0.00 | 0.00 | 0.00 | 57 | 996.3 |
| 20260504230423 | 25 | 264 | 1.6 | 4.8 | 0.00 | 0.00 | 0.00 | 56 | 996.2 |
| 20260504225926 | 25 | 337 | 0.0 | 4.8 | 0.00 | 0.00 | 0.00 | 57 | 996.7 |
| 20260504225423 | 26 | 211 | 4.8 | 6.4 | 0.00 | 0.00 | 0.00 | 56 | 996.5 |
| 20260504224828 | 26 | 264 | 3.2 | 3.2 | 0.00 | 0.00 | 0.00 | 56 | 996.6 |
| 20260504224334 | 26 | 260 | 3.2 | 6.4 | 0.00 | 0.00 | 0.00 | 55 | 996.6 |
| 20260504223725 | 26 | 217 | 4.8 | 6.4 | 0.00 | 0.00 | 0.00 | 56 | 996.5 |
| 20260504223225 | 26 | 229 | 1.6 | 4.8 | 0.00 | 0.00 | 0.00 | 56 | 996.5 |
| 20260504222723 | 26 | 218 | 6.4 | 6.4 | 0.00 | 0.00 | 0.00 | 55 | 996.6 |
| 20260504222232 | 26 | 288 | 4.8 | 6.4 | 0.00 | 0.00 | 0.00 | 54 | 996.9 |
| 20260504221723 | 26 | 259 | 1.6 | 4.8 | 0.00 | 0.00 | 0.00 | 55 | 996.9 |
| 20260504221222 | 26 | 228 | 3.2 | 9.7 | 0.00 | 0.00 | 0.00 | 53 | 996.7 |
| 20260504220635 | 26 | 89 | 1.6 | 3.2 | 0.00 | 0.00 | 0.00 | 53 | 996.8 |
| 20260504220024 | 26 | 238 | 3.2 | 6.4 | 0.00 | 0.00 | 0.00 | 55 | 996.8 |
| 20260504215533 | 26 | 200 | 4.8 | 6.4 | 0.00 | 0.00 | 0.00 | 54 | 997.0 |
| 20260504215033 | 26 | 235 | 4.8 | 8.0 | 0.00 | 0.00 | 0.00 | 54 | 997.0 |
| 20260504214423 | 26 | 29 | 0.0 | 3.2 | 0.00 | 0.00 | 0.00 | 54 | 997.1 |
| 20260504213924 | 26 | 214 | 1.6 | 3.2 | 0.00 | 0.00 | 0.00 | 53 | 997.1 |
| 20260504213432 | 26 | 205 | 4.8 | 6.4 | 0.00 | 0.00 | 0.00 | 52 | 997.2 |
| 20260504212823 | 26 | 225 | 4.8 | 8.0 | 0.00 | 0.00 | 0.00 | 50 | 997.3 |
| 20260504212322 | 27 | 224 | 0.0 | 8.0 | 0.00 | 0.00 | 0.00 | 52 | 997.5 |
| 20260504211726 | 26 | 278 | 3.2 | 6.4 | 0.00 | 0.00 | 0.00 | 51 | 997.6 |
| 20260504211225 | 26 | 219 | 6.4 | 6.4 | 0.00 | 0.00 | 0.00 | 51 | 997.5 |
| 20260504210624 | 26 | 89 | 0.0 | 3.2 | 0.00 | 0.00 | 0.00 | 53 | 997.7 |
| 20260504210124 | 26 | 205 | 0.0 | 4.8 | 0.00 | 0.00 | 0.00 | 51 | 998.0 |
| 20260504205525 | 26 | 249 | 3.2 | 4.8 | 0.00 | 0.00 | 0.00 | 54 | 998.0 |
| 20260504204925 | 25 | 204 | 3.2 | 4.8 | 0.00 | 0.00 | 0.00 | 53 | 998.0 |
| 20260504204423 | 25 | 202 | 1.6 | 4.8 | 0.00 | 0.00 | 0.00 | 53 | 998.0 |
| 20260504203836 | 25 | 220 | 4.8 | 4.8 | 0.00 | 0.00 | 0.00 | 54 | 998.2 |
| 20260504203325 | 25 | 196 | 0.0 | 6.4 | 0.00 | 0.00 | 0.00 | 53 | 998.2 |
| 20260504202834 | 26 | 205 | 3.2 | 3.2 | 0.00 | 0.00 | 0.00 | 51 | 998.3 |
| 20260504202322 | 26 | 289 | 1.6 | 3.2 | 0.00 | 0.00 | 0.00 | 51 | 998.2 |
| 20260504201635 | 26 | 224 | 0.0 | 3.2 | 0.00 | 0.00 | 0.00 | 51 | 998.5 |
| 20260504201122 | 26 | 261 | 3.2 | 4.8 | 0.00 | 0.00 | 0.00 | 52 | 998.6 |
| 20260504200623 | 26 | 208 | 1.6 | 4.8 | 0.00 | 0.00 | 0.00 | 51 | 998.9 |
| 20260504200023 | 26 | 232 | 3.2 | 3.2 | 0.00 | 0.00 | 0.00 | 51 | 999.0 |
| 20260504195426 | 26 | 295 | 1.6 | 4.8 | 0.00 | 0.00 | 0.00 | 51 | 999.0 |
| 20260504194923 | 26 | 248 | 1.6 | 3.2 | 0.00 | 0.00 | 0.00 | 50 | 999.0 |
| 20260504194325 | 26 | 265 | 3.2 | 8.0 | 0.00 | 0.00 | 0.00 | 51 | 999.0 |
| 20260504193821 | 26 | 263 | 3.2 | 14.5 | 0.00 | 0.00 | 0.00 | 50 | 998.8 |
| 20260504193321 | 26 | 185 | 3.2 | 4.8 | 0.00 | 0.00 | 0.00 | 49 | 999.1 |
| 20260504192731 | 26 | 212 | 0.0 | 6.4 | 0.00 | 0.00 | 0.00 | 49 | 999.2 |
| 20260504192221 | 26 | 242 | 3.2 | 3.2 | 0.00 | 0.00 | 0.00 | 51 | 998.9 |
| 20260504191732 | 26 | 65 | 3.2 | 3.2 | 0.00 | 0.00 | 0.00 | 49 | 999.3 |
| 20260504191122 | 26 | 299 | 8.0 | 9.7 | 0.00 | 0.00 | 0.00 | 50 | 999.2 |
| 20260504190624 | 25 | 251 | 4.8 | 9.7 | 0.00 | 0.00 | 0.00 | 51 | 999.6 |
| 20260504190022 | 25 | 214 | 3.2 | 4.8 | 0.00 | 0.00 | 0.00 | 49 | 999.8 |
| 20260504185432 | 26 | 194 | 3.2 | 6.4 | 0.00 | 0.00 | 0.00 | 50 | 999.8 |
| 20260504184822 | 26 | 246 | 0.0 | 4.8 | 0.00 | 0.00 | 0.00 | 50 | 1000.1 |
| 20260504184233 | 25 | 233 | 1.6 | 8.0 | 0.00 | 0.00 | 0.00 | 50 | 999.7 |
| 20260504183722 | 25 | 101 | 1.6 | 3.2 | 0.00 | 0.00 | 0.00 | 49 | 1000.1 |
| 20260504183232 | 25 | 240 | 6.4 | 6.4 | 0.00 | 0.00 | 0.00 | 51 | 999.8 |
| 20260504182623 | 25 | 236 | 4.8 | 6.4 | 0.00 | 0.00 | 0.00 | 51 | 1000.1 |
| 20260504182024 | 25 | 220 | 6.4 | 6.4 | 0.00 | 0.00 | 0.00 | 50 | 1000.5 |
| 20260504181522 | 25 | 226 | 4.8 | 6.4 | 0.00 | 0.00 | 0.00 | 50 | 1000.3 |
| 20260504181032 | 25 | 273 | 6.4 | 8.0 | 0.00 | 0.00 | 0.00 | 51 | 1000.3 |
| 20260504180423 | 25 | 103 | 0.0 | 6.4 | 0.00 | 0.00 | 0.00 | 50 | 1000.5 |
| 20260504175923 | 25 | 169 | 3.2 | 3.2 | 0.00 | 0.00 | 0.00 | 51 | 1000.5 |
| 20260504175424 | 25 | 207 | 3.2 | 4.8 | 0.00 | 0.00 | 0.00 | 51 | 1000.3 |
| 20260504174922 | 24 | 302 | 3.2 | 6.4 | 0.00 | 0.00 | 0.00 | 51 | 1000.4 |
| 20260504174423 | 24 | 180 | 3.2 | 6.4 | 0.00 | 0.00 | 0.00 | 51 | 1000.2 |
| 20260504173832 | 24 | 217 | 6.4 | 6.4 | 0.00 | 0.00 | 0.00 | 53 | 1000.7 |
| 20260504173323 | 24 | 337 | 0.0 | 4.8 | 0.00 | 0.00 | 0.00 | 52 | 1000.8 |
| 20260504172724 | 23 | 116 | 4.8 | 8.0 | 0.00 | 0.00 | 0.00 | 52 | 1000.6 |
| 20260504172123 | 24 | 216 | 1.6 | 4.8 | 0.00 | 0.00 | 0.00 | 53 | 1001.0 |
| 20260504171522 | 23 | 337 | 0.0 | 4.8 | 0.00 | 0.00 | 0.00 | 53 | 1001.1 |
| 20260504170932 | 23 | 88 | 1.6 | 6.4 | 0.00 | 0.00 | 0.00 | 53 | 1000.9 |
| 20260504170423 | 23 | 108 | 0.0 | 4.8 | 0.00 | 0.00 | 0.00 | 56 | 1001.3 |
| 20260504151123 | 21 | 269 | 1.6 | 8.0 | 0.00 | 0.00 | 0.00 | 58 | 1001.9 |
| 20260504150623 | 21 | 304 | 0.0 | 6.4 | 0.00 | 0.00 | 0.00 | 59 | 1001.9 |
| 20260504141122 | 19 | 246 | 0.0 | 4.8 | 0.00 | 0.00 | 0.00 | 66 | 1001.8 |
| 20260504140623 | 19 | 245 | 1.6 | 3.2 | 0.00 | 0.00 | 0.00 | 66 | 1001.9 |
| 20260504130623 | 14 | 193 | 0.0 | 3.2 | 0.00 | 0.00 | 0.00 | 90 | 1002.0 |
| 20260504110326 | 13 | 4 | 0.0 | 3.2 | 0.00 | 0.00 | 0.00 | 90 | 1001.2 |